New York, NY

9:22 AM EDT on September 30, 2016 (GMT -0400)
Central Park

Weather History for KNYC - October, 2013

Change the Weather History Date:

Wednesday, October 23, 2013

  Actual Average Record
Temperature  
Mean Temperature 50 °F 55 °F  
Max Temperature 55 °F 61 °F 85 °F (1947)
Min Temperature 45 °F 48 °F 32 °F (1969)
Degree Days  
Heating Degree Days 15 11  
Month to date heating degree days 78 174  
Since 1 July heating degree days 114 219  
Cooling Degree Days 0 0  
Month to date cooling degree days 46 13  
Year to date cooling degree days 1271 1100  
Moisture  
Dew Point 35 °F    
Average Humidity 55    
Maximum Humidity 66    
Minimum Humidity 44    
Precipitation  
Precipitation 0.00 in 0.14 in 2.97 in (1912)
Month to date precipitation 0.30 3.30  
Year to date precipitation 38.26 40.82  
Snow  
Snow 0.00 in 0.00 in 0.00 in (2002)
Month to date snowfall 0.0 0.0  
Since 1 July snowfall 0.0 0.0  
Snow Depth 0.00 in    
Sea Level Pressure  
Sea Level Pressure 29.73 in    
Wind  
Wind Speed 4 mph (NE)    
Max Wind Speed 14 mph    
Max Gust Speed 21 mph    
Visibility 10 miles    
Events      
T = Trace of Precipitation, MM = Missing Value Source: NWS Daily Summary

Daily Weather History Graph

Daily Weather History Graph

Search for Another Location

Airport or City:

Trip Planner

Search our weather history database for the weather conditions in past years. The results will help you decide how hot, cold, wet, or windy it might be!

Date:

Astronomy

Oct. 23, 2013 Rise Set
Actual Time 7:16 AM EDT 6:03 PM EDT
Civil Twilight 6:48 AM EDT 6:31 PM EDT
Nautical Twilight 6:16 AM EDT 7:03 PM EDT
Astronomical Twilight 5:44 AM EDT 7:35 PM EDT
Moon 9:31 PM EDT (10/23) 11:32 AM EDT (10/23)
Length of Visible Light 11h 43m
Length of Day
10h 47m
Waning Gibbous, 79% of the Moon is Illuminated
Oct 23
Waning Gibbous
Oct 26
Last Quarter
Nov 3
New
Nov 10
First Quarter
Nov 17
Full

Hourly Weather History & Observations

Time (EDT) Temp. Windchill Dew Point Humidity Pressure Visibility Wind Dir Wind Speed Gust Speed Precip Events Conditions
12:51 AM 51.1 °F - 39.0 °F 63% 29.82 in 10.0 mi Variable 4.6 mph - N/A   Clear
1:51 AM 50.0 °F - 37.0 °F 61% 29.81 in 10.0 mi Variable 4.6 mph - N/A   Clear
2:51 AM 48.9 °F - 37.9 °F 66% 29.81 in 10.0 mi NE 3.5 mph - N/A   Clear
3:51 AM 50.0 °F - 37.0 °F 61% 29.78 in 10.0 mi Variable 3.5 mph - N/A   Partly Cloudy
4:51 AM 48.9 °F - 37.0 °F 64% 29.78 in 10.0 mi NE 4.6 mph - N/A   Scattered Clouds
5:51 AM 48.9 °F - 34.0 °F 56% 29.78 in 10.0 mi Variable 3.5 mph - N/A   Partly Cloudy
6:51 AM 48.9 °F - 33.1 °F 54% 29.76 in 10.0 mi Variable 3.5 mph - N/A   Mostly Cloudy
7:51 AM 48.9 °F - 35.1 °F 59% 29.78 in 10.0 mi Calm Calm - N/A   Clear
8:51 AM 52.0 °F - 37.0 °F 57% 29.78 in 10.0 mi Calm Calm - N/A   Clear
9:51 AM 52.0 °F - 36.0 °F 54% 29.76 in 10.0 mi Variable 4.6 mph - N/A   Mostly Cloudy
10:51 AM 52.0 °F - 35.1 °F 53% 29.74 in 10.0 mi ENE 6.9 mph - N/A   Overcast
11:51 AM 52.0 °F - 34.0 °F 50% 29.70 in 10.0 mi ENE 10.4 mph 16.1 mph N/A   Partly Cloudy
12:51 PM 52.0 °F - 34.0 °F 50% 29.66 in 10.0 mi ENE 10.4 mph 19.6 mph N/A   Partly Cloudy
1:51 PM 52.0 °F - 30.9 °F 45% 29.64 in 10.0 mi Variable 5.8 mph - N/A   Scattered Clouds
2:51 PM 53.1 °F - 32.0 °F 45% 29.63 in 10.0 mi East 5.8 mph - N/A   Clear
3:51 PM 54.0 °F - 32.0 °F 43% 29.63 in 10.0 mi Calm Calm - N/A   Scattered Clouds
4:51 PM 54.0 °F - 32.0 °F 43% 29.63 in 10.0 mi Variable 3.5 mph - N/A   Mostly Cloudy
5:51 PM 51.1 °F - 33.1 °F 50% 29.65 in 10.0 mi Calm Calm - N/A   Mostly Cloudy
6:51 PM 51.1 °F - 33.1 °F 50% 29.68 in 10.0 mi North - - N/A   Overcast
7:51 PM 51.1 °F - 35.1 °F 54% 29.69 in 10.0 mi WNW 6.9 mph - N/A   Overcast
8:51 PM 48.9 °F - 33.1 °F 54% 29.72 in 10.0 mi Variable 5.8 mph - N/A   Overcast
9:51 PM 48.0 °F - 34.0 °F 58% 29.74 in 10.0 mi North - - N/A   Scattered Clouds
10:51 PM 46.9 °F - 34.0 °F 61% 29.75 in 10.0 mi North - - N/A   Mostly Cloudy
11:51 PM 46.0 °F 43.9 °F 34.0 °F 63% 29.76 in 10.0 mi Variable 4.6 mph - N/A   Clear